Theta_e
323 323 320 319 317 315 313 312 310 310 309 304 303 302 300 301 301 302 304 304 304 304 301 301 302 302 301 300 301 300 299 299 300 296 301 299 305 302 305 309 309 311 313
320 320 319 318 316 314 312 310 311 312 310 306 305 303 302 302 302 302 303 304 304 304 303 302 302 302 301 301 300 299 298 298 300 296 296 296 297 301 304 307 308 309 311
319 319 317 316 316 314 313 311 310 309 306 305 304 302 301 300 300 300 301 303 304 304 303 304 303 302 301 300 299 300 298 297 298 299 297 298 297 299 300 305 307 307 309
321 319 318 315 316 314 315 312 309 308 305 304 302 300 298 298 299 300 301 303 305 304 306 306 305 302 301 300 300 303 299 297 296 298 301 299 304 299 297 302 304 307 308
320 319 317 316 316 315 313 312 308 305 304 303 301 300 299 299 301 301 301 303 303 305 307 305 304 303 302 301 301 300 300 298 300 302 298 296 299 303 301 298 300 305 308
320 319 318 316 314 313 313 312 308 304 303 303 302 301 301 300 301 301 301 302 302 303 304 305 303 303 302 301 301 300 300 299 298 299 298 297 300 300 301 299 301 302 306
320 317 315 313 312 311 312 310 306 304 304 304 303 303 302 301 301 302 302 301 301 301 303 302 302 301 301 301 301 299 299 299 298 297 297 301 303 304 304 303 302 301 305
319 317 315 313 311 311 310 310 305 304 303 303 302 302 302 302 302 302 302 301 300 301 302 303 302 302 301 301 300 298 299 299 299 300 299 298 303 299 305 303 301 299 303
318 317 316 313 312 311 309 308 306 303 303 303 302 302 302 302 303 303 301 302 301 303 304 303 301 300 298 298 298 299 299 298 299 302 298 298 299 300 302 304 304 302 298
318 317 317 314 312 310 308 306 306 304 304 303 302 302 302 303 304 302 302 301 301 301 302 302 300 299 298 297 296 297 299 298 299 300 298 298 300 299 303 304 304 304 302
318 318 317 313 311 309 308 306 305 304 303 303 302 302 302 304 304 303 302 301 301 302 302 303 301 299 297 296 296 297 299 299 298 299 298 299 299 300 303 303 304 303 304
319 316 311 309 308 307 307 306 306 305 304 303 303 303 303 303 303 302 302 302 301 302 303 303 301 300 297 295 296 298 299 299 299 299 298 303 304 302 303 304 304 304 305
312 307 306 306 306 306 307 306 306 305 304 304 303 303 303 303 302 302 301 302 302 302 302 302 301 299 297 295 296 298 300 300 300 298 298 300 299 299 302 303 304 304 305
309 306 304 305 305 306 306 306 305 305 305 304 304 303 302 302 302 302 301 302 303 302 302 302 301 300 297 296 296 297 301 304 299 298 298 299 298 298 298 303 303 304 304
308 306 304 303 304 305 305 307 306 306 305 305 304 303 302 302 302 302 302 303 303 303 303 303 302 303 300 298 298 298 298 303 299 297 297 299 303 307 306 304 303 304 303
309 308 306 304 304 305 305 307 306 305 306 305 303 303 303 303 303 302 302 302 303 302 302 302 302 304 303 302 303 302 298 303 298 297 295 296 300 303 305 307 306 306 303
309 307 306 305 305 305 307 306 306 306 306 305 304 304 303 304 303 303 302 303 303 301 301 301 301 304 301 301 301 303 297 296 302 300 294 295 297 301 298 303 305 304 305
310 308 306 305 305 306 307 308 307 306 305 304 304 305 304 304 303 303 305 306 305 301 300 301 301 302 300 302 299 300 295 299 301 302 299 294 294 298 298 300 300 300 300
312 310 307 305 305 306 308 307 305 305 305 304 304 305 305 307 305 302 304 307 305 303 300 301 300 299 298 301 299 297 294 294 301 303 302 301 298 300 300 295 295 297 300
311 307 305 305 305 306 308 306 304 305 304 305 306 308 308 308 304 305 306 305 306 304 304 302 299 301 297 299 298 297 293 292 296 299 300 302 300 299 299 293 292 293 296
309 308 306 305 306 307 307 305 304 304 306 307 309 308 307 305 305 302 306 305 304 303 302 298 298 297 297 295 297 297 294 292 292 293 297 299 299 298 297 298 294 294 296
307 308 305 305 306 305 306 304 303 306 306 308 308 307 306 306 305 301 301 305 304 301 295 294 295 295 293 297 296 296 295 297 291 292 297 298 298 297 297 297 298 298 300
306 307 305 305 304 304 305 303 304 306 306 304 304 306 306 304 302 301 299 298 297 299 293 293 292 292 293 292 295 295 295 296 293 295 298 298 297 298 298 298 299 300 299
306 306 305 304 303 304 305 304 304 304 303 302 302 301 300 299 300 301 302 303 300 299 294 294 292 291 291 291 291 292 291 295 297 297 298 300 298 298 298 296 295 299 300
306 306 305 304 304 304 304 304 305 304 301 301 301 300 300 299 300 300 304 304 304 302 296 296 294 291 291 292 293 292 295 295 295 295 297 296 296 295 295 295 297 295 298
305 304 303 305 305 305 305 305 305 303 301 300 300 299 299 299 300 301 303 299 298 298 294 295 297 295 294 294 294 293 293 292 293 295 294 294 294 294 295 295 296 296 297
Wind_Speed
10 11 11 13 12 8 6 8 10 7 5 2 3 1 2 0 1 2 3 3 3 4 4 4 5 5 4 5 5 4 4 3 3 3 5 4 3 2 6 5 6 9 9
13 13 12 8 5 9 8 7 7 6 6 3 2 3 2 1 1 2 4 4 4 4 3 3 4 5 4 6 5 4 4 3 3 3 3 5 5 3 3 5 7 9 7
19 13 13 9 8 8 8 7 7 7 5 6 4 3 3 3 3 2 3 4 6 6 5 4 3 4 3 4 4 3 4 3 3 3 1 4 3 9 3 4 7 9 7
14 16 15 13 10 8 8 6 7 5 6 6 4 3 3 2 2 2 2 4 5 6 5 5 4 4 4 5 4 3 2 2 4 3 1 3 3 3 7 3 7 9 7
19 19 16 13 10 10 9 6 7 6 6 6 6 4 3 1 1 1 4 4 4 4 5 5 5 4 3 4 5 5 4 1 2 2 3 2 3 3 3 7 11 6 4
20 17 16 14 11 8 8 8 8 6 7 6 6 6 5 2 1 2 2 3 3 4 5 5 5 5 4 5 5 4 4 4 3 3 2 2 2 4 3 4 8 7 5
18 18 19 15 13 12 11 9 8 7 6 6 5 5 4 2 1 1 2 3 3 2 5 5 6 4 5 5 5 4 5 4 3 3 3 2 3 2 3 4 6 3 3
14 16 17 16 15 14 12 10 9 7 6 6 5 5 5 2 1 2 2 2 2 4 4 5 4 5 6 6 5 3 4 5 4 5 4 3 3 2 3 3 5 5 2
17 18 18 16 16 15 14 13 10 7 7 7 5 5 4 3 2 2 2 3 3 4 5 4 4 4 6 6 6 3 5 4 4 5 4 3 3 3 4 3 3 4 3
17 16 16 16 14 13 10 10 10 10 7 7 6 5 4 3 3 1 3 4 4 3 5 5 4 5 6 6 6 4 4 5 4 3 5 4 3 4 4 3 3 3 2
17 16 14 14 14 12 11 11 10 9 7 7 6 5 4 3 2 3 3 3 4 4 5 4 4 4 6 6 6 5 5 6 5 5 5 6 5 4 4 4 4 3 2
16 12 12 14 14 13 12 12 11 9 8 7 6 6 5 3 3 3 3 3 4 4 4 4 4 4 5 6 6 6 6 5 5 6 6 6 4 6 5 5 6 4 4
12 12 12 14 14 13 12 11 11 9 8 7 7 6 6 5 4 3 3 3 4 3 4 3 3 4 5 6 6 6 6 6 5 5 5 6 6 6 6 6 7 5 3
14 12 12 13 12 12 11 11 10 9 8 7 6 6 7 6 5 4 4 3 3 3 4 4 4 3 5 5 6 6 6 5 5 5 5 5 6 6 6 6 7 7 4
15 15 15 11 11 11 10 10 10 9 8 7 6 7 6 5 4 4 4 4 4 4 4 5 5 4 4 4 6 6 6 5 6 6 6 5 9 14 9 4 6 7 5
16 16 15 14 14 14 12 12 11 10 8 8 8 6 5 4 4 4 4 4 4 4 4 5 5 5 3 7 11 9 5 5 4 5 6 6 9 11 13 10 10 8 4
19 18 19 17 15 14 13 12 11 9 9 7 6 6 5 4 4 4 4 4 4 3 5 6 5 5 4 6 9 10 5 5 4 4 5 6 5 9 7 10 8 7 8
16 15 13 13 12 10 10 10 10 10 9 7 6 6 5 6 5 4 4 3 3 4 4 4 4 4 5 5 7 8 6 5 4 3 4 4 6 6 7 6 5 5 4
18 14 12 12 10 12 11 11 10 9 8 7 6 6 5 5 4 4 5 4 2 3 3 3 5 4 5 6 7 5 5 6 5 4 4 4 4 8 9 6 6 6 5
9 13 13 12 12 9 12 11 10 8 8 7 7 6 5 5 5 5 4 3 3 3 3 4 4 3 3 6 7 5 2 4 4 5 5 6 6 7 7 4 4 5 5
14 13 14 13 12 11 10 9 8 8 9 6 5 5 5 6 5 3 2 2 1 2 2 3 3 2 3 4 6 7 3 2 3 4 4 4 8 7 7 6 4 4 6
16 13 12 11 10 9 9 7 7 8 6 6 6 6 5 4 3 3 2 1 1 2 3 3 3 3 3 6 6 7 5 5 2 4 4 4 6 6 8 6 8 10 6
13 11 12 11 7 7 7 7 6 6 6 6 7 5 4 3 3 3 2 1 1 1 1 1 1 2 2 3 6 7 7 7 3 3 6 7 5 6 5 7 9 7 4
13 12 13 10 7 6 6 6 6 6 6 6 5 3 3 2 2 2 2 3 3 2 3 2 2 1 2 3 3 4 5 7 4 5 4 5 5 5 3 3 5 4 4
11 11 11 9 8 7 7 6 6 6 6 5 4 3 3 3 3 3 4 4 3 4 4 4 4 3 1 3 3 3 4 4 4 5 3 3 3 4 4 4 3 3 3
9 8 7 9 7 7 7 6 6 7 6 5 4 3 2 3 2 3 4 4 8 8 9 7 6 3 4 5 4 5 7 6 5 2 2 3 3 3 4 4 4 2 4
Wind_Direction
149 145 142 140 137 132 128 114 114 108 109 102 116 91 140 87 13 332 331 355 344 338 336 333 333 342 352 325 333 322 332 316 324 319 319 303 323 194 334 330 345 339 334
151 151 147 147 151 140 132 113 112 135 129 145 171 162 170 186 246 286 306 313 323 322 316 331 332 327 326 338 336 346 327 295 324 326 311 338 333 309 334 343 342 344 331
167 163 156 149 146 149 126 124 123 125 111 112 109 70 53 24 338 318 312 321 326 323 324 325 323 329 319 315 311 320 346 308 304 351 245 331 349 326 309 337 338 338 336
162 160 160 160 165 146 118 128 123 122 117 128 117 144 146 164 249 278 294 308 337 337 339 338 327 329 323 337 318 321 287 312 312 332 293 252 283 325 319 319 333 335 338
163 170 165 156 144 140 146 140 120 133 132 138 140 138 131 117 296 301 330 326 332 343 337 340 326 319 319 324 333 344 338 315 291 300 322 305 297 254 275 308 328 325 336
172 164 150 146 143 146 151 148 137 171 144 147 151 142 133 146 1 354 343 331 325 331 331 332 322 317 330 331 323 325 336 327 315 304 299 249 301 315 308 300 312 309 318
168 160 153 154 153 162 164 158 148 175 167 154 152 141 128 154 213 292 284 315 328 317 313 332 331 319 320 329 331 333 336 332 317 325 296 275 270 274 278 290 302 304 287
168 160 158 159 164 170 168 158 161 166 176 160 163 143 143 180 216 261 285 289 283 289 291 290 309 339 347 337 334 331 315 340 335 322 319 295 297 293 281 292 316 317 298
175 169 167 166 168 174 174 155 162 177 178 173 165 159 164 171 215 248 274 285 294 290 307 327 332 341 350 344 339 323 336 344 318 322 318 301 301 314 297 283 286 296 315
176 174 176 167 169 171 165 146 160 178 181 169 174 177 186 188 216 239 270 282 292 310 314 335 335 343 344 344 342 335 319 340 327 312 327 326 305 325 306 298 289 292 287
175 180 173 165 166 165 163 156 165 169 175 175 173 169 193 207 211 225 262 294 305 308 316 309 318 342 345 348 340 333 332 338 332 336 331 317 326 316 316 308 290 279 262
173 168 161 160 166 166 167 163 173 171 179 172 165 186 198 207 212 215 261 274 286 307 297 302 320 346 350 344 343 329 330 331 344 337 341 326 341 327 312 316 310 286 263
155 155 160 169 171 169 168 167 174 173 173 159 167 186 206 211 217 238 259 277 283 307 311 302 317 337 342 344 336 322 322 319 357 353 342 334 340 327 327 327 326 317 278
159 163 164 172 167 166 168 170 171 172 166 161 172 190 208 211 210 239 249 273 277 289 293 281 281 304 327 339 339 334 325 337 356 351 346 341 338 325 325 329 334 341 351
172 175 169 166 162 164 167 174 171 165 164 163 183 207 204 210 221 247 263 275 268 269 278 282 271 283 324 342 335 337 323 341 344 356 346 338 344 349 347 333 344 356 10
180 178 172 168 171 171 170 170 167 169 164 176 195 204 192 208 229 252 274 280 258 278 279 281 277 298 308 327 342 348 339 341 348 342 340 338 351 343 348 348 14 21 14
179 180 180 176 175 173 165 167 165 164 175 181 195 204 203 211 230 239 253 266 266 266 277 281 291 287 287 333 344 351 351 339 312 349 344 338 341 349 342 344 23 18 26
180 181 175 169 172 158 156 147 160 168 176 189 193 206 204 219 218 230 257 239 240 257 268 282 281 267 270 300 351 356 347 326 336 330 339 341 336 338 350 340 359 349 352
179 176 167 153 142 149 145 156 161 168 178 193 198 206 214 235 200 232 233 244 233 255 259 262 283 272 320 348 351 356 349 341 344 349 320 335 341 341 360 5 353 336 328
150 146 137 136 140 139 153 154 165 168 192 197 204 206 200 208 194 220 216 225 224 256 289 304 285 285 306 354 356 5 347 338 334 332 333 334 342 342 354 8 348 342 316
127 128 135 143 143 142 145 156 155 182 206 200 188 196 174 175 187 211 237 242 293 263 317 310 305 342 19 6 13 3 359 319 324 325 325 324 328 341 357 360 347 292 301
128 134 124 127 132 133 135 146 170 205 200 196 176 163 173 180 177 201 244 270 336 36 3 346 4 27 34 20 351 346 344 342 317 307 309 302 317 338 0 359 344 345 348
126 125 122 117 109 122 138 149 206 194 177 155 161 163 165 176 187 202 233 185 111 117 136 131 46 312 323 335 327 320 335 338 325 287 302 317 339 324 353 351 352 355 352
120 119 118 125 132 146 149 156 172 157 138 145 145 148 167 215 235 233 233 229 187 192 197 199 231 249 300 313 330 342 332 335 330 338 338 341 360 10 319 347 351 345 345
119 126 133 146 157 151 153 165 161 142 143 157 157 191 191 221 254 258 244 239 221 190 196 208 186 174 223 248 247 292 325 322 304 322 7 1 347 346 343 339 330 343 345
126 122 132 144 155 158 157 160 164 152 152 155 170 195 206 246 256 264 300 252 249 231 210 180 165 223 223 214 263 315 326 330 332 20 352 341 329 326 329 332 323 323 333